This demonstration page uses our WeatherBlox Daily Observations layout. Learn more.

38.89511, -77.03637

Hourly Observations for November 25, 2017

Temp ( °F °C ) Dew Point ( °F °C ) Humidity (%) Winds ( mph kmh ) Pressure ( in mb ) Visibility ( mi km ) Precip ( " mm )
12:06 am 00:06 Clear 30 -1 28 -2 93 93 Calm 29.97 1015 10 16.0934 N/A
12:24 am 00:24 Clear 30 -1 28 -2 93 93 Calm 29.94 1014 10 16.0934 N/A
12:45 am 00:45 Clear 28 -2 28 -2 100 100 Calm 29.94 1014 10 16.0934 N/A
1:06 am 01:06 Clear 28 -2 28 -2 100 100 Calm 29.94 1014 10 16.0934 N/A
1:24 am 01:24 Clear 28 -2 28 -2 100 100 Calm 29.94 1014 10 16.0934 N/A
1:45 am 01:45 Clear 28 -2 28 -2 100 100 Calm 29.94 1014 10 16.0934 N/A
2:06 am 02:06 Clear 28 -2 28 -2 100 100 Calm 29.91 1013 10 16.0934 N/A
2:24 am 02:24 Clear 28 -2 27 -3 93 93 Calm 29.91 1013 10 16.0934 N/A
2:45 am 02:45 Clear 28 -2 28 -2 100 100 Calm 29.91 1013 10 16.0934 N/A
3:06 am 03:06 Clear 28 -2 28 -2 100 100 Calm 29.91 1013 10 16.0934 N/A
3:24 am 03:24 Clear 28 -2 28 -2 100 100 Calm 29.91 1013 10 16.0934 N/A
3:45 am 03:45 Clear 28 -2 27 -3 93 93 Calm 29.88 1012 10 16.0934 N/A
4:06 am 04:06 Clear 28 -2 27 -3 93 93 Calm 29.88 1012 10 16.0934 N/A
4:24 am 04:24 Clear 28 -2 27 -3 93 93 Calm 29.88 1012 10 16.0934 N/A
4:45 am 04:45 Clear 28 -2 28 -2 100 100 Calm 29.88 1012 10 16.0934 N/A
5:06 am 05:06 Clear 28 -2 27 -3 93 93 Calm 29.88 1012 10 16.0934 N/A
5:24 am 05:24 Clear 28 -2 27 -3 93 93 Calm 29.85 1011 10 16.0934 N/A
5:45 am 05:45 Clear 28 -2 28 -2 100 100 Calm 29.85 1011 10 16.0934 N/A
6:06 am 06:06 Clear 28 -2 27 -3 93 93 Calm 29.85 1011 10 16.0934 N/A
6:24 am 06:24 Clear 28 -2 27 -3 93 93 Calm 29.88 1012 10 16.0934 N/A
6:45 am 06:45 Clear 27 -3 27 -3 100 100 Calm 29.85 1011 10 16.0934 N/A
7:06 am 07:06 Sunny 27 -3 27 -3 100 100 Calm 29.85 1011 10 16.0934 N/A
7:24 am 07:24 Sunny 28 -2 27 -3 93 93 Calm 29.85 1011 10 16.0934 N/A
7:45 am 07:45 Sunny 28 -2 28 -2 100 100 Calm 29.85 1011 10 16.0934 N/A
8:06 am 08:06 Sunny 30 -1 30 -1 100 100 Calm 29.85 1011 10 16.0934 N/A
8:24 am 08:24 Sunny 32 0 30 -1 93 93 Calm 29.85 1011 10 16.0934 N/A
8:45 am 08:45 Sunny 32 0 32 0 100 100 Calm 29.85 1011 10 16.0934 N/A
9:06 am 09:06 Sunny 34 1 34 1 100 100 Calm 29.85 1011 10 16.0934 N/A
9:24 am 09:24 Sunny 37 3 34 1 87 87 Calm 29.85 1011 10 16.0934 N/A
9:45 am 09:45 Sunny 43 6 34 1 71 71 Calm 29.85 1011 10 16.0934 N/A
10:06 am 10:06 Sunny 45 7 34 1 66 66 SW 3 6 29.83 1010 10 16.0934 N/A
10:24 am 10:24 Sunny 46 8 34 1 62 62 SSW 6 9 29.83 1010 10 16.0934 N/A
10:45 am 10:45 Sunny 50 10 32 0 50 50 SW 6 9 29.83 1010 10 16.0934 N/A
11:06 am 11:06 Sunny 50 10 32 0 50 50 Calm 29.8 1009 10 16.0934 N/A
11:24 am 11:24 Sunny 52 11 34 1 50 50 SSW 6 9 29.8 1009 10 16.0934 N/A
11:45 am 11:45 Sunny 54 12 34 1 47 47 SW 6 9 29.8 1009 10 16.0934 N/A
12:06 pm 12:06 Sunny 55 13 34 1 44 44 WSW 3 6 29.8 1009 10 16.0934 N/A
12:24 pm 12:24 Sunny 57 14 34 1 41 41 WNW 6 9 29.8 1009 10 16.0934 N/A
12:45 pm 12:45 Sunny 57 14 34 1 41 41 Calm 29.74 1007 10 16.0934 N/A
1:06 pm 13:06 Sunny 59 15 34 1 39 39 W 5 7 29.74 1007 10 16.0934 N/A
1:24 pm 13:24 Sunny 59 15 34 1 39 39 W 3 6 29.74 1007 10 16.0934 N/A
1:45 pm 13:45 Partly Cloudy 59 15 34 1 39 39 Calm 29.74 1007 10 16.0934 N/A
2:06 pm 14:06 Cloudy 59 15 34 1 39 39 Calm 29.74 1007 10 16.0934 N/A
2:24 pm 14:24 Mostly Cloudy 61 16 36 2 39 39 WSW 5 7 29.74 1007 10 16.0934 N/A
2:45 pm 14:45 Partly Cloudy 61 16 34 1 36 36 Calm 29.74 1007 10 16.0934 N/A
3:06 pm 15:06 Partly Cloudy 61 16 34 1 36 36 W 6 9 29.74 1007 10 16.0934 N/A
3:24 pm 15:24 Cloudy 61 16 36 2 39 39 Calm 29.74 1007 10 16.0934 N/A
3:45 pm 15:45 Cloudy 59 15 36 2 42 42 W 6 9 29.74 1007 10 16.0934 N/A
4:06 pm 16:06 Partly Cloudy 59 15 36 2 42 42 W 6 9 29.77 1008 10 16.0934 N/A
4:24 pm 16:24 Mostly Cloudy 57 14 36 2 44 44 W 5 7 29.8 1009 10 16.0934 N/A
4:45 pm 16:45 Partly Cloudy 55 13 36 2 47 47 Calm 29.8 1009 10 16.0934 N/A
5:06 pm 17:06 Clear 50 10 36 2 58 58 Calm 29.8 1009 10 16.0934 N/A
5:24 pm 17:24 Clear 48 9 36 2 62 62 Calm 29.8 1009 10 16.0934 N/A
5:45 pm 17:45 Clear 46 8 34 1 62 62 Calm 29.83 1010 10 16.0934 N/A
6:06 pm 18:06 Clear 45 7 34 1 66 66 Calm 29.83 1010 10 16.0934 N/A
6:24 pm 18:24 Partly Cloudy 43 6 34 1 71 71 Calm 29.83 1010 10 16.0934 N/A
6:45 pm 18:45 Cloudy 43 6 34 1 71 71 Calm 29.83 1010 10 16.0934 N/A
7:06 pm 19:06 Mostly Cloudy 43 6 36 2 76 76 Calm 29.83 1010 10 16.0934 N/A
7:24 pm 19:24 Mostly Cloudy 43 6 36 2 76 76 Calm 29.83 1010 10 16.0934 N/A
7:45 pm 19:45 Mostly Cloudy 43 6 36 2 76 76 Calm 29.83 1010 10 16.0934 N/A
8:06 pm 20:06 Partly Cloudy 41 5 34 1 76 76 Calm 29.85 1011 10 16.0934 N/A
8:24 pm 20:24 Partly Cloudy 41 5 34 1 76 76 Calm 29.85 1011 10 16.0934 N/A
8:45 pm 20:45 Mostly Cloudy 41 5 36 2 81 81 Calm 29.85 1011 10 16.0934 N/A
9:06 pm 21:06 Partly Cloudy 41 5 36 2 81 81 Calm 29.85 1011 10 16.0934 N/A
9:24 pm 21:24 Mostly Cloudy 41 5 34 1 76 76 Calm 29.85 1011 10 16.0934 N/A
9:45 pm 21:45 Partly Cloudy 41 5 36 2 81 81 Calm 29.85 1011 10 16.0934 N/A
10:06 pm 22:06 Partly Cloudy 41 5 36 2 81 81 Calm 29.85 1011 10 16.0934 N/A
10:24 pm 22:24 Partly Cloudy 41 5 36 2 81 81 WNW 3 6 29.85 1011 10 16.0934 N/A
10:45 pm 22:45 Partly Cloudy 39 4 36 2 87 87 W 3 6 29.88 1012 10 16.0934 N/A
11:06 pm 23:06 Partly Cloudy 39 4 36 2 87 87 Calm 29.88 1012 10 16.0934 N/A
11:24 pm 23:24 Partly Cloudy 43 6 36 2 76 76 W 5 7 29.88 1012 10 16.0934 N/A
11:45 pm 23:45 Partly Cloudy 45 7 36 2 71 71 WNW 7 11 29.88 1012 10 16.0934 N/A

Powered by AerisWeather